| time (UTC) | temp F | wind direction | speed MPH | gust MPH | rain 1hr in | rain 24hr in | rain mn in | humidity % | barometer mb |
| 20260903194600 | 67 | 236 | 4.0 | 9.0 | 0.00 | 0.16 | 0.16 | 85 | 1013.7 |
| 20260903193101 | 66 | 255 | 4.0 | 10.0 | 0.01 | 0.16 | 0.16 | 89 | 1014.0 |
| 20260903191603 | 65 | 285 | 5.0 | 12.0 | 0.01 | 0.16 | 0.16 | 92 | 1014.1 |
| 20260903190108 | 65 | 238 | 4.0 | 8.0 | 0.01 | 0.16 | 0.16 | 94 | 1014.3 |
| 20260903184608 | 64 | 245 | 3.0 | 8.0 | 0.03 | 0.16 | 0.16 | 93 | 1014.4 |
| 20260903183106 | 64 | 226 | 3.0 | 10.0 | 0.03 | 0.15 | 0.15 | 94 | 1014.4 |
| 20260903181601 | 64 | 230 | 4.0 | 11.0 | 0.04 | 0.15 | 0.15 | 94 | 1014.4 |
| 20260903180111 | 64 | 156 | 3.0 | 7.0 | 0.05 | 0.15 | 0.15 | 94 | 1014.3 |
| 20260903174600 | 63 | 175 | 4.0 | 9.0 | 0.04 | 0.13 | 0.13 | 94 | 1014.3 |
| 20260903173110 | 63 | 142 | 1.0 | 5.0 | 0.04 | 0.12 | 0.12 | 94 | 1014.2 |
| 20260903171600 | 63 | 217 | 2.0 | 7.0 | 0.04 | 0.11 | 0.11 | 93 | 1014.3 |
| 20260903164600 | 63 | 0 | 1.0 | 5.0 | 0.03 | 0.09 | 0.09 | 93 | 1014.1 |
| 20260903163135 | 62 | 195 | 3.0 | 11.0 | 0.04 | 0.08 | 0.08 | 93 | 1014.2 |
| 20260903161602 | 62 | 161 | 3.0 | 10.0 | 0.05 | 0.07 | 0.07 | 93 | 1014.3 |
| 20260903160106 | 62 | 213 | 1.0 | 8.0 | 0.06 | 0.07 | 0.07 | 93 | 1014.4 |
| 20260903154602 | 62 | 153 | 1.0 | 7.0 | 0.05 | 0.07 | 0.06 | 93 | 1014.4 |
| 20260903153104 | 62 | 169 | 2.0 | 7.0 | 0.03 | 0.05 | 0.04 | 92 | 1014.6 |
| 20260903151603 | 62 | 222 | 2.0 | 6.0 | 0.01 | 0.03 | 0.02 | 92 | 1014.6 |
| 20260903150105 | 62 | 196 | 2.0 | 6.0 | 0.00 | 0.02 | 0.01 | 92 | 1014.4 |
| 20260903144604 | 62 | 179 | 2.0 | 6.0 | 0.00 | 0.06 | 0.01 | 92 | 1014.4 |
| 20260903143103 | 62 | 177 | 0.0 | 4.0 | 0.00 | 0.06 | 0.01 | 92 | 1014.4 |
| 20260903141608 | 62 | 0 | 1.0 | 5.0 | 0.00 | 0.06 | 0.01 | 92 | 1014.2 |
| 20260903140105 | 62 | 0 | 1.0 | 4.0 | 0.00 | 0.06 | 0.01 | 92 | 1014.2 |
| 20260903134635 | 62 | 0 | 1.0 | 6.0 | 0.00 | 0.07 | 0.01 | 92 | 1014.1 |
| 20260903133107 | 61 | 125 | 2.0 | 8.0 | 0.01 | 0.07 | 0.01 | 92 | 1014.1 |
| 20260903131604 | 61 | 186 | 1.0 | 6.0 | 0.01 | 0.07 | 0.01 | 92 | 1014.2 |
| 20260903130110 | 61 | 165 | 1.0 | 5.0 | 0.01 | 0.07 | 0.01 | 92 | 1014.3 |
| 20260903124610 | 62 | 155 | 1.0 | 5.0 | 0.01 | 0.07 | 0.01 | 91 | 1014.4 |
| 20260903123115 | 62 | 184 | 1.0 | 4.0 | 0.00 | 0.06 | 0.00 | 91 | 1014.6 |
| 20260903121601 | 62 | 177 | 0.0 | 5.0 | 0.00 | 0.06 | 0.00 | 90 | 1014.7 |
| 20260903120129 | 62 | 196 | 1.0 | 6.0 | 0.00 | 0.06 | 0.00 | 89 | 1014.7 |
| 20260903114608 | 62 | 140 | 0.0 | 4.0 | 0.00 | 0.06 | 0.00 | 89 | 1014.9 |
| 20260903113103 | 62 | 0 | 1.0 | 4.0 | 0.00 | 0.06 | 0.00 | 88 | 1015.0 |
| 20260903111603 | 62 | 161 | 1.0 | 5.0 | 0.00 | 0.06 | 0.00 | 87 | 1015.1 |
| 20260903110105 | 62 | 171 | 1.0 | 4.0 | 0.00 | 0.06 | 0.00 | 86 | 1015.2 |
| 20260903104609 | 62 | 200 | 0.0 | 4.0 | 0.00 | 0.06 | 0.00 | 86 | 1015.3 |
| 20260903103101 | 62 | 0 | 0.0 | 3.0 | 0.00 | 0.06 | 0.00 | 86 | 1015.3 |
| 20260903101601 | 62 | 144 | 1.0 | 3.0 | 0.00 | 0.06 | 0.00 | 87 | 1015.3 |
| 20260903100104 | 62 | 143 | 1.0 | 2.0 | 0.00 | 0.06 | 0.00 | 87 | 1015.4 |
| 20260903094602 | 61 | 0 | 0.0 | 0.0 | 0.00 | 0.06 | 0.00 | 87 | 1015.5 |
| 20260903093107 | 61 | 0 | 0.0 | 0.0 | 0.00 | 0.06 | 0.00 | 88 | 1015.7 |
| 20260903091609 | 61 | 0 | 0.0 | 0.0 | 0.00 | 0.06 | 0.00 | 88 | 1015.9 |
| 20260903084600 | 61 | 0 | 0.0 | 0.0 | 0.00 | 0.06 | 0.00 | 88 | 1016.0 |
| 20260903083058 | 61 | 0 | 0.0 | 0.0 | 0.00 | 0.06 | 0.00 | 88 | 1016.2 |
| 20260903081601 | 61 | 0 | 0.0 | 0.0 | 0.00 | 0.06 | 0.00 | 87 | 1016.3 |
| 20260903074636 | 61 | 0 | 0.0 | 0.0 | 0.00 | 0.06 | 0.00 | 87 | 1016.3 |
| 20260903073107 | 61 | 0 | 0.0 | 2.0 | 0.00 | 0.06 | 0.00 | 87 | 1016.3 |
| 20260903071605 | 61 | 0 | 1.0 | 4.0 | 0.00 | 0.06 | 0.00 | 87 | 1016.4 |
| 20260903070114 | 62 | 257 | 0.0 | 4.0 | 0.00 | 0.06 | 0.00 | 87 | 1016.6 |
| 20260903064559 | 61 | 0 | 0.0 | 4.0 | 0.00 | 0.06 | 0.06 | 87 | 1016.5 |
| 20260903063109 | 61 | 209 | 0.0 | 4.0 | 0.00 | 0.06 | 0.06 | 87 | 1016.7 |
| 20260903061615 | 61 | 198 | 0.0 | 2.0 | 0.00 | 0.06 | 0.06 | 87 | 1016.7 |
| 20260903060107 | 61 | 0 | 0.0 | 2.0 | 0.00 | 0.06 | 0.06 | 86 | 1016.7 |
| 20260903054604 | 62 | 174 | 1.0 | 3.0 | 0.00 | 0.06 | 0.06 | 87 | 1016.7 |
| 20260903053101 | 62 | 235 | 1.0 | 4.0 | 0.00 | 0.06 | 0.06 | 87 | 1017.0 |
| 20260903051601 | 61 | 225 | 1.0 | 3.0 | 0.00 | 0.06 | 0.06 | 87 | 1017.0 |
| 20260903050105 | 61 | 0 | 0.0 | 2.0 | 0.00 | 0.06 | 0.06 | 86 | 1017.1 |
| 20260903044602 | 61 | 0 | 0.0 | 2.0 | 0.00 | 0.06 | 0.06 | 86 | 1017.0 |
| 20260903043103 | 62 | 0 | 0.0 | 0.0 | 0.00 | 0.06 | 0.06 | 86 | 1017.0 |
| 20260903041613 | 62 | 0 | 0.0 | 0.0 | 0.00 | 0.06 | 0.06 | 85 | 1017.1 |
| 20260903034602 | 62 | 0 | 0.0 | 0.0 | 0.00 | 0.06 | 0.06 | 81 | 1016.8 |
| 20260903033102 | 63 | 0 | 0.0 | 0.0 | 0.00 | 0.06 | 0.06 | 81 | 1016.6 |
| 20260903031608 | 63 | 0 | 0.0 | 3.0 | 0.00 | 0.06 | 0.06 | 80 | 1016.4 |
| 20260903030100 | 64 | 0 | 0.0 | 6.0 | 0.00 | 0.06 | 0.06 | 79 | 1016.2 |
| 20260903024604 | 64 | 254 | 4.0 | 10.0 | 0.00 | 0.06 | 0.06 | 78 | 1016.2 |
| 20260903023106 | 65 | 244 | 5.0 | 10.0 | 0.00 | 0.06 | 0.06 | 77 | 1016.3 |
| 20260903021604 | 66 | 248 | 3.0 | 10.0 | 0.00 | 0.06 | 0.06 | 77 | 1016.3 |
| 20260903020100 | 66 | 258 | 7.0 | 13.0 | 0.00 | 0.06 | 0.06 | 76 | 1016.3 |
| 20260903014625 | 68 | 276 | 6.0 | 14.0 | 0.00 | 0.06 | 0.06 | 73 | 1016.3 |
| 20260903013106 | 69 | 248 | 5.0 | 11.0 | 0.00 | 0.06 | 0.06 | 71 | 1016.4 |
| 20260903011622 | 69 | 265 | 4.0 | 12.0 | 0.00 | 0.06 | 0.06 | 70 | 1016.4 |
| 20260903010114 | 70 | 248 | 5.0 | 11.0 | 0.00 | 0.06 | 0.06 | 69 | 1016.4 |
| 20260903004608 | 70 | 280 | 7.0 | 14.0 | 0.00 | 0.06 | 0.06 | 67 | 1016.3 |
| 20260903003127 | 71 | 227 | 6.0 | 12.0 | 0.00 | 0.06 | 0.06 | 65 | 1016.3 |
| 20260903001604 | 71 | 173 | 6.0 | 13.0 | 0.00 | 0.06 | 0.06 | 64 | 1016.3 |
| 20260902234611 | 72 | 242 | 6.0 | 13.0 | 0.00 | 0.06 | 0.06 | 62 | 1016.3 |
| 20260902233104 | 72 | 269 | 6.0 | 12.0 | 0.00 | 0.06 | 0.06 | 62 | 1016.4 |
| 20260902231606 | 72 | 214 | 6.0 | 13.0 | 0.00 | 0.06 | 0.06 | 63 | 1016.5 |
| 20260902230105 | 72 | 221 | 7.0 | 15.0 | 0.00 | 0.06 | 0.06 | 63 | 1016.7 |
| 20260902224627 | 73 | 260 | 6.0 | 12.0 | 0.00 | 0.06 | 0.06 | 61 | 1016.9 |
| 20260902223103 | 73 | 228 | 5.0 | 12.0 | 0.00 | 0.06 | 0.06 | 61 | 1016.8 |
| 20260902221602 | 73 | 273 | 6.0 | 11.0 | 0.00 | 0.06 | 0.06 | 62 | 1016.9 |
| 20260902220116 | 72 | 280 | 4.0 | 12.0 | 0.00 | 0.06 | 0.06 | 64 | 1017.0 |
| 20260902214601 | 71 | 237 | 4.0 | 11.0 | 0.00 | 0.06 | 0.06 | 62 | 1017.1 |
| 20260902213104 | 71 | 243 | 4.0 | 12.0 | 0.00 | 0.06 | 0.06 | 65 | 1017.1 |
| 20260902211605 | 71 | 231 | 5.0 | 12.0 | 0.00 | 0.06 | 0.06 | 64 | 1017.2 |
| 20260902210100 | 70 | 280 | 4.0 | 11.0 | 0.00 | 0.06 | 0.06 | 65 | 1017.4 |
| 20260902204608 | 70 | 322 | 6.0 | 11.0 | 0.00 | 0.06 | 0.06 | 65 | 1017.4 |
| 20260902203118 | 71 | 288 | 2.0 | 10.0 | 0.00 | 0.06 | 0.06 | 68 | 1017.5 |
| 20260902201604 | 70 | 178 | 4.0 | 9.0 | 0.00 | 0.06 | 0.06 | 69 | 1017.4 |
| 20260902200106 | 70 | 155 | 5.0 | 10.0 | 0.00 | 0.06 | 0.06 | 67 | 1017.5 |